EW7398 Weather Reports


Display with metric or nautical units.
time (UTC)temp
F
wind
direction
speed
MPH
gust
MPH
rain 1hr
in
rain 24hr
in
rain mn
in
humidity
%
barometer
mb
20260831103022 61 188 1.0 3.0 0.00 0.10 0.00 85 1007.8
20260831101558 61 188 1.0 4.0 0.00 0.10 0.00 85 1007.9
20260831100050 62 188 0.0 1.0 0.00 0.10 0.00 85 1008.2
20260831094557 62 188 0.0 2.0 0.00 0.10 0.10 85 1008.6
20260831093047 62 188 1.0 7.0 0.00 0.10 0.10 85 1009.0
20260831091524 62 186 3.0 8.0 0.00 0.10 0.10 86 1009.1
20260831090112 62 180 4.0 10.0 0.00 0.10 0.10 86 1009.2
20260831084535 62 0.0 0.0 0.00 0.10 0.10 87 1008.6
20260831083043 62 0.0 0.0 0.00 0.10 0.10 87 1008.6
20260831081509 63 0.0 0.0 0.01 0.10 0.10 86 1008.9
20260831080051 63 0.0 0.0 0.01 0.10 0.10 83 1008.9
20260831074553 64 0.0 0.0 0.06 0.10 0.10 82 1008.6
20260831073029 65 0.0 0.0 0.10 0.10 0.10 82 1008.1
20260831071542 67 0.0 0.0 0.09 0.09 0.09 84 1008.3
20260831070120 67 0.0 0.0 0.09 0.09 0.09 70 1008.6
20260831064530 70 124 13.0 21.0 0.04 0.04 0.04 64 1008.2
20260831063006 72 177 7.0 10.0 0.00 0.00 0.00 75 1007.7
20260831061549 72 156 3.0 8.0 0.00 0.00 0.00 71 1007.1
20260831060018 72 124 2.0 4.0 0.00 0.00 0.00 69 1007.0
20260831054604 72 124 2.0 4.0 0.00 0.00 0.00 68 1007.2
20260831054506 72 124 2.0 4.0 0.00 0.00 0.00 68 1007.2
20260831053040 72 124 2.0 4.0 0.00 0.00 0.00 68 1007.3
20260831051540 73 124 2.0 3.0 0.00 0.00 0.00 68 1007.1
20260831050110 73 124 2.0 4.0 0.00 0.00 0.00 68 1006.9
20260831044536 73 124 3.0 7.0 0.00 0.00 0.00 68 1007.0
20260831043030 74 157 3.0 7.0 0.00 0.00 0.00 66 1007.3
20260831041520 74 161 4.0 7.0 0.00 0.00 0.00 65 1007.2
20260831040056 75 143 2.0 4.0 0.00 0.00 0.00 64 1007.2
20260831034529 75 190 2.0 5.0 0.00 0.00 0.00 63 1007.6
20260831033020 76 196 2.0 3.0 0.00 0.00 0.00 62 1007.2
20260831031514 76 276 0.0 3.0 0.00 0.00 0.00 59 1006.7
20260831024526 77 323 1.0 3.0 0.00 0.01 0.00 57 1006.5
20260831023051 78 323 1.0 3.0 0.00 0.01 0.00 56 1006.5
20260831021554 79 323 1.0 3.0 0.00 0.01 0.00 55 1006.6
20260831020008 79 275 2.0 3.0 0.00 0.01 0.00 52 1006.7
20260831014607 80 274 0.0 0.0 0.00 0.06 0.00 50 1006.7
20260831013047 80 274 2.0 6.0 0.00 0.06 0.00 50 1006.6
20260831011520 81 252 3.0 8.0 0.00 0.06 0.00 48 1006.7
20260831010057 81 256 3.0 7.0 0.00 0.06 0.00 47 1006.5
20260831004524 82 265 4.0 8.0 0.00 0.06 0.00 46 1006.5
20260831003009 83 252 5.0 11.0 0.00 0.06 0.00 44 1006.5
20260831001605 83 252 7.0 12.0 0.00 0.06 0.00 43 1006.2
20260831000045 84 237 4.0 10.0 0.00 0.06 0.00 42 1006.1
20260830234551 84 247 7.0 13.0 0.00 0.06 0.00 41 1006.4
20260830233038 85 197 7.0 12.0 0.00 0.06 0.00 40 1006.4
20260830231530 86 208 5.0 16.0 0.00 0.06 0.00 38 1006.5
20260830230116 87 236 9.0 12.0 0.00 0.06 0.00 37 1006.5
20260830224534 88 263 8.0 17.0 0.00 0.06 0.00 36 1006.5
20260830223011 89 266 6.0 13.0 0.00 0.06 0.00 37 1006.7
20260830221555 89 211 8.0 15.0 0.00 0.06 0.00 36 1007.1
20260830220011 87 216 7.0 13.0 0.00 0.06 0.00 39 1007.2
20260830214552 87 218 7.0 14.0 0.00 0.06 0.00 40 1007.6
20260830213021 86 178 7.0 17.0 0.00 0.06 0.00 41 1007.7
20260830211510 86 188 9.0 15.0 0.00 0.06 0.00 41 1008.0
20260830210100 86 136 10.0 17.0 0.00 0.06 0.00 42 1008.1
20260830204511 86 137 9.0 14.0 0.00 0.06 0.00 42 1008.5
20260830203057 87 128 7.0 19.0 0.00 0.06 0.00 42 1008.7
20260830201534 86 160 11.0 17.0 0.00 0.06 0.00 42 1008.8
20260830200119 85 146 10.0 20.0 0.00 0.06 0.00 43 1008.9
20260830194549 86 120 11.0 16.0 0.00 0.07 0.00 43 1009.0
20260830193023 86 180 13.0 19.0 0.00 0.07 0.00 43 1009.2
20260830191509 85 167 10.0 19.0 0.00 0.07 0.00 44 1009.4
20260830190024 84 159 12.0 20.0 0.00 0.07 0.00 45 1009.6
20260830184557 84 132 8.0 15.0 0.00 0.07 0.00 47 1009.8
20260830183037 83 133 12.0 19.0 0.00 0.07 0.00 47 1009.9
20260830181513 81 130 10.0 16.0 0.00 0.07 0.00 48 1010.1
20260830180053 81 360 12.0 18.0 0.00 0.07 0.00 49 1010.1
20260830174511 80 157 12.0 20.0 0.00 0.07 0.00 50 1010.1
20260830173052 78 149 11.0 22.0 0.00 0.07 0.00 52 1010.1
20260830171527 79 178 12.0 21.0 0.00 0.07 0.00 52 1010.1
20260830170106 78 140 12.0 18.0 0.00 0.07 0.00 54 1010.3
20260830164545 77 204 12.0 18.0 0.00 0.07 0.00 55 1010.2
20260830163100 77 139 15.0 22.0 0.00 0.07 0.00 57 1010.3
20260830163001 77 147 13.0 22.0 0.00 0.07 0.00 57 1010.2
20260830161539 76 147 10.0 20.0 0.00 0.07 0.00 61 1010.1
20260830160112 75 140 13.0 19.0 0.00 0.07 0.00 64 1010.1
20260830154537 74 140 12.0 20.0 0.00 0.07 0.00 66 1010.1
20260830153014 73 178 9.0 17.0 0.00 0.07 0.00 69 1010.1
20260830151552 71 148 8.0 14.0 0.00 0.07 0.00 74 1010.2
20260830150011 69 186 6.0 9.0 0.00 0.07 0.00 80 1010.1
20260830144542 66 171 4.0 9.0 0.00 0.07 0.00 85 1010.0
20260830143022 64 171 3.0 4.0 0.00 0.07 0.00 86 1010.1
20260830141504 64 171 0.0 2.0 0.00 0.07 0.00 86 1010.0
20260830140050 64 171 0.0 2.0 0.00 0.07 0.00 86 1009.8
20260830134557 63 171 0.0 2.0 0.00 0.07 0.00 86 1009.5
20260830133037 63 171 0.0 1.0 0.00 0.07 0.00 85 1009.3
20260830131514 64 171 1.0 3.0 0.00 0.07 0.00 84 1009.1
20260830130106 64 171 0.0 3.0 0.00 0.07 0.00 83 1008.6
20260830124522 64 171 2.0 4.0 0.00 0.07 0.00 83 1008.4
20260830123004 65 171 4.0 6.0 0.00 0.07 0.00 83 1008.3
20260830121546 65 177 4.0 9.0 0.00 0.07 0.00 83 1008.3
20260830120008 65 156 6.0 8.0 0.00 0.07 0.00 83 1008.4
20260830114559 65 165 5.0 9.0 0.00 0.07 0.00 83 1008.4
20260830113036 65 196 6.0 11.0 0.00 0.07 0.00 83 1008.4
20260830111520 65 198 6.0 12.0 0.00 0.07 0.00 82 1008.3
20260830110058 65 158 6.0 10.0 0.00 0.07 0.00 82 1008.3
20260830104516 65 152 6.0 11.0 0.00 0.07 0.00 82 1008.5